This is the latest recevied weather packets stored in our database for station/object K3RUP-1. If no packets are shown the sender has not sent any weather packets the latest 10 day(s).
| Time | Temp. | Humidity | Pressure | Rain* | Wind** | Luminosity | Snow |
|---|---|---|---|---|---|---|---|
| 1777563668 | 18.89° C | 54% | 1007.8 hPa | 0 mm | - | 781 W/m² | - |
| 1777563363 | 18.89° C | 54% | 1008 hPa | 0 mm | - | 759 W/m² | - |
| 1777563059 | 18.33° C | 57% | 1008 hPa | 0 mm | - | 758 W/m² | - |
| 1777562755 | 18.33° C | 62% | 1008 hPa | 0 mm | - | 786 W/m² | - |
| 1777562453 | 18.33° C | 60% | 1008 hPa | 0 mm | - | 767 W/m² | - |
| 1777562150 | 17.78° C | 61% | 1008 hPa | 0 mm | - | 763 W/m² | - |
| 1777561848 | 17.78° C | 67% | 1008.1 hPa | 0 mm | - | 364 W/m² | - |
| 1777561544 | 17.78° C | 64% | 1008.1 hPa | 0 mm | - | 396 W/m² | - |
| 1777561239 | 17.22° C | 67% | 1008.3 hPa | 0 mm | - | 492 W/m² | - |
| 1777560938 | 17.22° C | 67% | 1008.2 hPa | 0 mm | - | 339 W/m² | - |
| 1777560636 | 17.22° C | 72% | 1008.2 hPa | 0 mm | - | 119 W/m² | - |
| 1777560334 | 16.67° C | 71% | 1008.1 hPa | 0 mm | - | 249 W/m² | - |
| 1777560032 | 16.67° C | 74% | 1008.4 hPa | 0 mm | - | 154 W/m² | - |
| 1777559727 | 16.67° C | 73% | 1008.3 hPa | 0 mm | - | 229 W/m² | - |
| 1777559424 | 16.11° C | 75% | 1008.6 hPa | 0 mm | - | 94 W/m² | - |
| 1777559120 | 16.11° C | 73% | 1008.6 hPa | 0 mm | - | 129 W/m² | - |
| 1777558815 | 16.11° C | 74% | 1008.6 hPa | 0 mm | - | 131 W/m² | - |
| 1777558511 | 16.11° C | 76% | 1008.6 hPa | 0 mm | - | 149 W/m² | - |
| 1777558208 | 15° C | 82% | 1008.4 hPa | 0 mm | - | 363 W/m² | - |
| 1777557903 | 14.44° C | 90% | 1008.8 hPa | 0 mm | - | 209 W/m² | - |
| 1777557601 | 13.89° C | 96% | 1008.6 hPa | 0 mm | - | 128 W/m² | - |
| 1777557296 | 13.33° C | 99% | 1008.4 hPa | 0 mm | - | 129 W/m² | - |
| 1777556993 | 13.33° C | 99% | 1008.2 hPa | 0 mm | - | 200 W/m² | - |
| 1777556689 | 13.33° C | 99% | 1008.2 hPa | 0 mm | - | 107 W/m² | - |
| 1777556385 | 12.78° C | 99% | 1008.3 hPa | 0 mm | - | 91 W/m² | - |
* Rain latest hour (hover to see other rain measurements)
** Current wind speed in m/s (hover to see current wind gust speed)